When you browse on this site, cookies collect data to enhance your experience and personalize the content and advertising you see.
Visit our Privacy Policy to learn more. By continuing to use the site, you agree to this use of cookies and data.
  • In Portugal
  • List of Countries
  • For 7 days
  • Water Temperature
  • Weather Map
  • Weather Widgets
  • user-avatar
    Login

    Hourly Weather Feira

    Today, 24 February, Monday

    Time Temperature Precipitation Wind Pressure Humidity
    00:00 +13°C° 0 mm 1 mps 760 mmHg 61%
    01:00 +13°C° 0 mm 1 mps 760 mmHg 60%
    02:00 +13°C° 0 mm 1 mps 759 mmHg 59%
    03:00 +12°C° 0 mm 1 mps 759 mmHg 59%
    04:00 +12°C° 0 mm 1 mps 759 mmHg 58%
    05:00 +12°C° 0 mm 1 mps 759 mmHg 58%
    06:00 +13°C° 0 mm 1 mps 759 mmHg 57%
    07:00 +14°C° 0 mm 1 mps 759 mmHg 55%
    08:00 +15°C° 0 mm 1 mps 759 mmHg 53%
    09:00 +18°C° 0 mm 1 mps 759 mmHg 49%
    10:00 +20°C° 0 mm 1 mps 759 mmHg 45%
    11:00 +20°C° 0 mm 2 mps 759 mmHg 40%
    12:00 +21°C° 0 mm 2 mps 758 mmHg 39%
    13:00 +21°C° 0 mm 2 mps 758 mmHg 39%
    14:00 +21°C° 0 mm 2 mps 757 mmHg 38%
    15:00 +19°C° 0 mm 2 mps 757 mmHg 48%
    16:00 +17°C° 0 mm 2 mps 757 mmHg 57%
    17:00 +14°C° 0 mm 3 mps 757 mmHg 67%
    18:00 +13°C° 0 mm 2 mps 757 mmHg 71%
    19:00 +12°C° 0 mm 2 mps 757 mmHg 75%
    20:00 +10°C° 0 mm 2 mps 757 mmHg 79%
    21:00 +10°C° 0 mm 2 mps 757 mmHg 78%
    22:00 +10°C° 0 mm 1 mps 757 mmHg 78%
    23:00 +10°C° 0 mm 1 mps 757 mmHg 77%

    Tomorrow, 25 February, Tuesday

    Time Temperature Precipitation Wind Pressure Humidity
    00:00 +10°C° 0 mm 1 mps 757 mmHg 79%
    01:00 +10°C° 0 mm 1 mps 757 mmHg 82%
    02:00 +10°C° 0 mm 1 mps 756 mmHg 84%
    03:00 +10°C° 0 mm 1 mps 756 mmHg 86%
    04:00 +10°C° 0 mm 1 mps 756 mmHg 87%
    05:00 +10°C° 0 mm 1 mps 756 mmHg 89%
    06:00 +10°C° 0.1 mm 2 mps 756 mmHg 87%
    07:00 +10°C° 0.1 mm 2 mps 756 mmHg 86%
    08:00 +12°C° 0.1 mm 2 mps 756 mmHg 84%
    09:00 +12°C° 0.6 mm 2 mps 756 mmHg 86%
    10:00 +11°C° 0.6 mm 3 mps 756 mmHg 88%
    11:00 +11°C° 0.6 mm 3 mps 756 mmHg 90%
    12:00 +11°C° 0.2 mm 3 mps 756 mmHg 90%
    13:00 +12°C° 0.2 mm 3 mps 755 mmHg 91%
    14:00 +12°C° 0.2 mm 4 mps 755 mmHg 91%
    15:00 +12°C° 0 mm 4 mps 755 mmHg 89%
    16:00 +11°C° 0 mm 4 mps 755 mmHg 86%
    17:00 +10°C° 0 mm 5 mps 756 mmHg 84%
    18:00 +9°C° 0 mm 5 mps 756 mmHg 85%
    19:00 +8°C° 0 mm 4 mps 757 mmHg 86%
    20:00 +7°C° 0 mm 4 mps 757 mmHg 88%
    21:00 +7°C° 0 mm 4 mps 757 mmHg 88%
    22:00 +7°C° 0 mm 4 mps 757 mmHg 88%
    23:00 +6°C° 0 mm 4 mps 757 mmHg 88%

    Day after tomorrow, 26 February, Wednesday

    Time Temperature Precipitation Wind Pressure Humidity
    00:00 +7°C° 0 mm 3 mps 757 mmHg 87%
    01:00 +7°C° 0 mm 3 mps 757 mmHg 86%
    02:00 +7°C° 0 mm 3 mps 757 mmHg 84%
    03:00 +7°C° 0 mm 3 mps 757 mmHg 83%
    04:00 +7°C° 0 mm 3 mps 757 mmHg 83%
    05:00 +7°C° 0 mm 2 mps 757 mmHg 82%
    06:00 +7°C° 0 mm 3 mps 757 mmHg 79%
    07:00 +8°C° 0 mm 3 mps 757 mmHg 77%
    08:00 +9°C° 0 mm 3 mps 757 mmHg 74%
    09:00 +10°C° 0 mm 3 mps 757 mmHg 68%
    10:00 +12°C° 0 mm 3 mps 758 mmHg 63%
    11:00 +13°C° 0 mm 4 mps 758 mmHg 57%
    12:00 +13°C° 0 mm 4 mps 757 mmHg 56%
    13:00 +14°C° 0 mm 4 mps 756 mmHg 55%
    14:00 +14°C° 0 mm 5 mps 756 mmHg 54%
    15:00 +13°C° 0 mm 4 mps 756 mmHg 60%
    16:00 +12°C° 0 mm 4 mps 756 mmHg 66%
    17:00 +10°C° 0 mm 4 mps 756 mmHg 72%
    18:00 +8°C° 0 mm 4 mps 756 mmHg 76%
    19:00 +8°C° 0 mm 3 mps 757 mmHg 79%
    20:00 +7°C° 0 mm 3 mps 757 mmHg 83%
    21:00 +7°C° 0 mm 2 mps 757 mmHg 83%
    22:00 +7°C° 0 mm 2 mps 757 mmHg 84%
    23:00 +7°C° 0 mm 2 mps 757 mmHg 84%

    27 February, Thursday

    Time Temperature Precipitation Wind Pressure Humidity
    00:00 +8°C° 0 mm 1 mps 757 mmHg 83%
    01:00 +8°C° 0 mm 1 mps 756 mmHg 82%
    02:00 +8°C° 0 mm 1 mps 756 mmHg 81%
    03:00 +8°C° 0 mm 1 mps 756 mmHg 82%
    04:00 +8°C° 0 mm 1 mps 756 mmHg 82%
    05:00 +8°C° 0 mm 1 mps 756 mmHg 83%
    06:00 +9°C° 0 mm 1 mps 756 mmHg 80%
    07:00 +10°C° 0 mm 1 mps 756 mmHg 77%
    08:00 +12°C° 0 mm 1 mps 756 mmHg 74%
    09:00 +13°C° 0 mm 1 mps 756 mmHg 69%
    10:00 +15°C° 0 mm 1 mps 756 mmHg 64%
    11:00 +16°C° 0 mm 2 mps 756 mmHg 59%
    12:00 +16°C° 0 mm 2 mps 756 mmHg 59%
    13:00 +17°C° 0 mm 2 mps 755 mmHg 59%
    14:00 +17°C° 0 mm 2 mps 755 mmHg 58%
    15:00 +16°C° 0 mm 2 mps 754 mmHg 65%
    16:00 +14°C° 0 mm 2 mps 754 mmHg 73%
    17:00 +13°C° 0 mm 1 mps 754 mmHg 80%
    18:00 +12°C° 0 mm 1 mps 754 mmHg 83%
    19:00 +11°C° 0 mm 1 mps 754 mmHg 87%
    20:00 +11°C° 0 mm 1 mps 755 mmHg 90%
    21:00 +10°C° 0 mm 1 mps 755 mmHg 91%
    22:00 +10°C° 0 mm 1 mps 754 mmHg 91%
    23:00 +10°C° 0 mm 1 mps 754 mmHg 91%

    28 February, Friday

    Time Temperature Precipitation Wind Pressure Humidity
    00:00 +10°C° 0 mm 1 mps 754 mmHg 91%
    01:00 +9°C° 0 mm 1 mps 754 mmHg 91%
    02:00 +9°C° 0 mm 1 mps 753 mmHg 91%
    03:00 +9°C° 0 mm 1 mps 753 mmHg 90%
    04:00 +10°C° 0 mm 1 mps 753 mmHg 90%
    05:00 +10°C° 0 mm 1 mps 753 mmHg 89%
    06:00 +10°C° 0 mm 2 mps 753 mmHg 86%
    07:00 +10°C° 0 mm 2 mps 753 mmHg 83%
    08:00 +12°C° 0 mm 2 mps 753 mmHg 81%
    09:00 +12°C° 0 mm 3 mps 753 mmHg 75%
    10:00 +13°C° 0 mm 3 mps 752 mmHg 70%
    11:00 +14°C° 0 mm 4 mps 752 mmHg 65%
    12:00 +14°C° 0.1 mm 4 mps 752 mmHg 68%
    13:00 +14°C° 0.1 mm 4 mps 752 mmHg 71%
    14:00 +14°C° 0.1 mm 5 mps 751 mmHg 74%
    15:00 +14°C° 0.1 mm 5 mps 751 mmHg 78%
    16:00 +13°C° 0.1 mm 4 mps 751 mmHg 83%
    17:00 +13°C° 0.1 mm 4 mps 751 mmHg 88%
    18:00 +13°C° 0.6 mm 4 mps 751 mmHg 91%
    19:00 +13°C° 0.6 mm 5 mps 751 mmHg 93%
    20:00 +13°C° 0.6 mm 5 mps 751 mmHg 96%
    21:00 +13°C° 0.6 mm 5 mps 751 mmHg 96%
    22:00 +13°C° 0.6 mm 5 mps 751 mmHg 95%
    23:00 +13°C° 0.6 mm 5 mps 751 mmHg 95%

    29 February, Saturday

    Time Temperature Precipitation Wind Pressure Humidity
    00:00 +12°C° 0.1 mm 4 mps 751 mmHg 94%
    01:00 +12°C° 0.1 mm 4 mps 751 mmHg 93%
    02:00 +11°C° 0.1 mm 4 mps 751 mmHg 91%
    03:00 +11°C° 0.1 mm 3 mps 751 mmHg 90%
    04:00 +11°C° 0.1 mm 3 mps 752 mmHg 89%
    05:00 +10°C° 0.1 mm 3 mps 752 mmHg 88%
    06:00 +11°C° 0 mm 3 mps 752 mmHg 86%
    07:00 +11°C° 0 mm 3 mps 752 mmHg 84%
    08:00 +12°C° 0 mm 3 mps 752 mmHg 82%
    09:00 +12°C° 0.1 mm 4 mps 752 mmHg 79%
    10:00 +13°C° 0.1 mm 4 mps 752 mmHg 77%
    11:00 +13°C° 0.1 mm 5 mps 752 mmHg 75%
    12:00 +13°C° 0.2 mm 5 mps 752 mmHg 78%
    13:00 +13°C° 0.2 mm 6 mps 751 mmHg 81%
    14:00 +11°C° 0.2 mm 6 mps 751 mmHg 84%
    15:00 +11°C° 0.3 mm 6 mps 751 mmHg 86%
    16:00 +11°C° 0.3 mm 6 mps 750 mmHg 88%
    17:00 +11°C° 0.3 mm 6 mps 750 mmHg 90%
    18:00 +11°C° 1.3 mm 6 mps 751 mmHg 91%
    19:00 +11°C° 1.3 mm 6 mps 751 mmHg 92%
    20:00 +12°C° 1.3 mm 5 mps 751 mmHg 94%
    21:00 +11°C° 0.5 mm 4 mps 751 mmHg 94%
    22:00 +11°C° 0.5 mm 3 mps 751 mmHg 94%
    23:00 +12°C° 0.5 mm 2 mps 751 mmHg 94%
    Show more